Regional Weather Roundup
Issued by NWS Goodland, KS

Home | Current Version | Previous Version | Text Only | Print | Product List | Glossary Off
Versions: 1 2 3 4 5 6 7 8 9 10 11 12 13 14 15 16 17 18 19 20 21 22 23 24 25 26 27 28 29 30 31 32 33 34 35 36 37 38 39 40 41 42 43 44 45 46 47 48 49 50

000
ASUS43 KGLD 070008
RWRGLD

GOODLAND FORECAST AREA HOURLY WEATHER ROUNDUP
NATIONAL WEATHER SERVICE GOODLAND KS
600 PM MDT WED MAY 06 2015

...OFFICIAL OBSERVATIONS...

CITY           SKY/WX    TMP DP  RH WIND       PRES   REMARKS
GOODLAND KS    CLOUDY    66  56  70 SW15      29.61F
HILL CITY KS   MOSUNNY   73  50  44 W10       29.58S
IMPERIAL NEB   CLOUDY    61  54  77 S13       29.58R
MCCOOK NEB     CLOUDY    69  54  58 SW7       29.57F
AKRON CO       MOSUNNY   61  55  81 W8        29.65R
BURLINGTON CO  PTSUNNY   68  50  52 W14       29.64F
LIMON CO       LGT RAIN  57  50  77 SW6       29.72R
$$

...UNOFFICIAL OBSERVATIONS...

CITY           SKY/WX    TMP DP  RH WIND       PRES   REMARKS
COLBY KS       SUNNY     64  57  77 S7        29.61F
GOVE KS          N/A     77  32  19 MISG        N/A
LENORA KS        N/A     71  32  23 MISG        N/A
NORTON KS      MOSUNNY   73  48  40 SW15      29.58
SHARON SPRINGS   N/A     72  56  57 MISG        N/A
TRENTON NEB      N/A     67  32  27 SW7         N/A
KIT CARSON CO    N/A     75  51  42 MISG        N/A
YUMA CO          N/A     64  55  73 W16         N/A
$$


USA.gov is the U.S. government's official web portal to all federal, state and local government web resources and services.